Theta_e
351 351 349 347 347 348 350 350 351 351 347 349 351 352 352 351 352 347 350 351 352 351 348 351 351 350 349 346 347 346 345 345 345 346 346 344 345 349 349 351 349 349 346
352 352 351 351 348 347 348 349 350 350 351 351 353 350 352 353 351 352 352 350 352 351 351 350 350 347 351 348 346 345 345 345 346 345 346 350 347 349 347 349 349 348 346
353 353 351 350 350 349 347 347 349 353 352 352 351 353 353 354 355 352 352 352 353 350 350 351 350 351 352 350 350 350 349 351 351 350 349 346 348 349 349 349 348 347 346
352 351 351 352 352 351 348 347 348 349 352 352 353 352 352 351 353 353 352 353 352 351 350 350 350 351 351 353 352 352 349 351 350 349 349 347 347 348 352 347 346 345 346
344 343 346 349 350 351 351 350 348 347 350 350 351 350 352 351 353 352 352 353 352 351 351 352 351 352 349 347 346 349 350 349 351 350 348 347 346 351 346 348 347 348 349
339 342 342 344 347 350 348 346 347 349 350 350 350 350 351 350 345 345 344 351 352 352 351 352 349 350 346 343 340 340 341 343 344 347 351 349 347 350 351 352 353 353 352
342 341 341 345 346 346 346 348 347 347 349 347 348 345 343 340 341 341 341 343 351 350 350 348 348 347 344 344 343 344 345 345 346 347 346 350 349 351 351 350 350 352 353
342 342 342 342 342 342 343 345 344 345 345 345 345 342 342 342 342 342 343 344 344 344 343 344 344 342 343 343 343 346 351 350 351 348 349 349 349 348 347 348 349 350 352
343 343 342 341 341 340 340 339 335 335 339 338 340 340 339 339 339 341 342 348 345 343 342 343 342 342 342 341 340 340 340 344 347 346 344 343 343 344 346 346 350 349 349
341 342 341 341 341 340 338 338 337 336 336 336 337 338 338 338 338 339 340 341 342 340 336 336 337 337 336 333 329 328 325 325 325 330 338 343 345 346 346 347 348 348 346
340 338 338 338 337 336 336 337 337 337 336 337 338 338 337 336 335 336 337 336 335 333 333 332 330 324 323 322 322 321 320 320 326 336 337 340 342 342 342 340 342 341 340
334 333 332 331 329 332 334 334 333 333 336 337 333 330 332 333 334 332 332 330 326 326 326 324 323 321 320 318 317 316 315 315 329 332 332 333 333 332 331 328 329 331 330
322 322 322 323 323 326 327 328 332 331 330 330 328 325 322 323 323 325 326 324 323 321 316 314 312 310 310 313 314 312 312 326 328 328 327 327 326 326 324 325 325 325 325
315 315 316 317 319 322 323 324 324 325 324 324 323 322 319 320 319 317 314 311 309 308 307 306 306 311 318 319 320 322 324 324 323 324 323 321 321 322 322 322 323 323 321
317 317 317 315 319 315 316 316 319 320 319 319 317 316 315 311 308 306 304 303 303 303 303 309 306 311 315 314 311 316 319 317 317 314 316 318 319 318 318 318 318 318 318
315 315 315 315 314 312 311 311 311 312 312 311 308 305 304 302 302 302 302 302 302 302 307 311 310 308 309 309 310 307 309 307 306 307 311 312 313 313 313 313 314 315 316
313 311 311 312 311 311 307 305 304 303 302 302 301 301 301 301 301 301 301 301 302 307 309 309 308 308 307 306 307 307 307 306 306 307 304 304 307 311 311 310 310 310 310
311 309 309 309 309 309 309 308 306 305 303 300 300 300 300 300 300 300 301 304 307 306 306 306 306 306 306 306 306 306 306 305 304 304 305 306 306 306 306 306 306 307 307
303 307 308 308 308 308 308 308 308 308 308 306 300 300 299 299 299 299 300 305 305 305 304 304 304 304 304 304 303 303 303 303 302 303 303 303 303 304 304 303 303 302 302
303 306 307 307 306 306 307 307 307 307 307 306 306 305 304 303 305 305 305 304 304 304 304 303 303 302 302 301 300 300 301 301 301 301 300 300 300 300 300 300 300 300 300
305 303 302 305 305 306 306 306 306 306 306 306 305 300 300 305 304 304 304 303 303 302 302 301 300 299 300 300 299 299 300 299 299 299 298 298 297 296 296 297 297 298 298
306 305 302 305 306 306 306 306 306 306 306 306 305 303 299 301 303 303 303 303 302 301 300 298 298 298 298 297 297 297 296 297 297 296 295 295 295 294 294 295 295 296 296
306 306 305 305 305 305 305 306 305 306 306 306 306 305 304 304 303 303 302 302 302 302 301 301 301 300 299 298 297 296 296 295 294 294 293 293 293 293 293 293 293 294 294
307 306 306 306 306 306 306 305 306 305 306 306 306 306 305 305 304 303 303 302 302 302 302 301 301 300 299 298 298 297 296 294 293 293 293 293 293 293 293 293 293 294 294
309 309 309 308 308 306 307 306 306 306 306 305 306 306 306 306 305 305 304 303 302 302 302 301 301 300 299 298 297 297 295 294 293 293 293 293 293 293 293 293 293 294 295
311 311 309 309 309 309 308 307 307 307 307 307 307 307 306 306 306 305 305 304 303 303 302 302 301 300 299 298 298 296 294 294 294 293 293 293 293 293 293 293 294 295 296
Wind_Speed
16 14 13 11 10 10 9 6 5 5 10 9 7 9 9 8 9 12 12 5 6 8 9 8 9 10 10 10 10 10 10 12 15 15 14 15 20 16 19 16 17 18 16
19 17 15 14 12 12 11 9 8 5 6 9 9 12 10 9 11 10 9 10 11 10 9 8 9 7 8 9 8 10 11 12 11 15 12 12 14 13 16 19 16 14 17
14 17 17 18 15 13 12 11 11 9 8 8 10 9 10 8 11 14 10 8 9 6 8 8 8 8 10 9 12 8 9 9 10 13 14 12 12 15 13 15 15 16 16
19 18 19 19 18 17 15 14 14 13 11 10 10 9 11 9 11 10 9 9 9 8 8 9 8 9 9 10 8 9 11 11 11 13 13 14 13 14 9 15 18 17 19
27 21 19 20 23 19 20 18 15 15 13 11 11 11 10 10 12 14 12 9 9 9 10 10 11 10 13 14 12 11 15 11 13 14 15 15 15 17 18 16 20 19 21
16 16 25 24 21 23 22 19 16 14 14 12 11 12 12 16 16 13 12 9 9 10 10 9 7 14 14 10 12 14 15 16 17 15 15 18 20 18 18 19 19 20 21
11 12 14 19 22 22 20 16 16 14 10 10 13 17 17 16 15 16 14 13 10 12 10 12 11 13 12 14 15 15 14 15 17 18 20 19 21 18 21 24 23 23 24
12 11 11 12 12 14 19 18 18 13 11 10 13 15 13 14 13 13 11 13 12 12 13 12 13 15 14 15 14 10 10 12 14 16 19 22 23 25 26 26 25 25 23
12 11 12 12 11 10 17 19 12 12 11 10 14 9 8 8 7 7 6 2 5 8 7 8 8 9 11 11 13 13 13 9 10 18 23 19 17 16 16 18 14 18 18
14 15 16 15 14 13 11 15 15 14 14 14 11 9 9 8 7 6 10 7 3 1 5 4 8 8 8 9 8 8 9 10 13 13 13 13 14 12 10 9 12 14 18
18 18 16 12 10 8 9 13 16 14 13 13 12 10 8 7 7 8 10 9 8 7 2 1 9 6 7 7 10 12 12 13 12 12 12 9 11 10 12 14 16 19 17
13 13 15 14 10 12 11 12 11 11 11 11 9 5 6 6 9 7 8 7 7 7 9 7 7 7 10 12 13 13 12 11 10 10 10 11 12 11 14 16 16 18 18
13 12 11 10 11 12 10 10 10 10 5 5 6 5 4 5 4 4 4 5 8 9 9 12 12 13 12 8 13 11 9 7 6 7 10 10 13 15 17 15 16 18 17
9 9 8 8 10 10 8 7 7 6 5 5 5 4 3 6 8 8 9 11 10 9 8 7 6 4 8 7 8 6 6 8 9 9 11 12 13 14 14 15 16 17 18
8 9 8 8 9 14 15 13 15 15 13 9 8 9 8 5 4 4 4 4 3 3 2 4 3 3 4 5 5 4 5 7 9 9 11 13 12 13 14 16 16 19 19
7 7 8 7 7 6 9 9 7 10 12 11 9 5 5 3 1 1 2 2 3 3 5 4 3 5 6 8 10 8 7 11 12 12 11 12 15 16 17 18 16 17 19
7 8 6 8 7 6 6 6 6 7 7 6 5 4 3 2 2 3 5 5 7 11 5 6 7 8 9 9 8 9 10 11 13 13 15 15 13 13 15 17 18 19 20
5 9 6 5 6 7 7 6 6 5 4 4 4 3 2 2 3 4 5 7 8 7 5 4 5 6 6 8 9 10 11 13 14 15 16 17 17 18 19 19 19 20 23
5 3 2 4 5 7 7 7 7 7 7 5 2 1 2 1 0 1 1 4 4 4 4 4 4 5 6 7 8 9 11 12 14 14 15 16 17 19 21 23 23 25 26
11 12 9 6 7 7 7 6 6 7 6 6 6 4 2 5 4 3 3 3 3 2 2 3 4 5 6 8 10 12 12 12 13 14 15 16 17 18 20 22 23 26 26
9 14 15 11 10 8 8 7 7 7 8 7 7 7 6 8 4 2 2 0 0 1 2 3 5 7 7 9 11 11 11 12 13 15 16 17 19 21 21 22 23 24 25
10 11 15 11 11 10 10 11 10 10 10 9 8 7 2 6 4 2 1 1 2 3 4 5 6 7 8 10 13 13 13 13 15 17 20 23 24 24 22 24 25 26 27
13 13 13 13 13 13 14 11 12 12 11 10 9 8 4 3 5 4 4 4 5 4 5 5 7 8 9 10 15 15 15 15 19 22 24 25 25 25 25 26 25 26 27
15 15 16 16 16 15 15 15 15 15 14 12 11 10 9 8 7 7 7 6 6 6 6 7 8 9 9 11 10 12 12 17 24 26 26 28 30 31 31 32 33 31 28
20 20 20 19 18 19 18 18 16 17 16 16 14 14 12 11 10 10 9 9 9 8 8 9 10 10 11 12 13 12 19 23 25 26 29 31 32 32 31 32 33 31 32
22 24 26 23 23 22 21 20 20 20 19 18 17 15 14 13 12 11 11 11 11 10 11 11 11 13 14 13 14 19 21 22 23 25 28 32 33 32 32 32 31 31 35
Wind_Direction
190 191 196 201 204 212 213 211 238 252 224 211 207 206 214 213 218 219 210 214 251 254 250 249 267 260 256 266 284 279 281 286 287 291 305 304 311 319 323 330 334 334 333
192 200 206 206 203 210 216 215 222 238 200 189 215 225 224 224 237 230 226 226 234 237 248 255 263 268 276 299 290 286 283 291 288 290 296 310 313 312 313 325 331 339 330
201 214 212 211 208 208 214 221 222 212 219 209 223 221 224 227 232 238 229 233 238 237 255 251 253 256 274 263 255 283 290 291 308 297 307 307 306 307 309 326 334 331 330
199 210 215 214 217 218 215 215 223 223 215 220 229 230 223 231 230 224 226 226 233 238 246 252 255 264 273 267 276 280 293 284 297 294 295 306 310 322 332 328 323 326 325
229 224 221 229 211 215 206 206 212 216 222 212 225 227 235 217 220 208 217 231 241 246 249 256 263 253 262 273 272 277 270 296 292 304 305 307 311 321 325 319 315 317 320
241 240 235 234 220 214 209 199 189 203 208 210 213 218 217 230 237 232 238 227 249 245 237 245 260 256 270 271 275 281 286 289 293 293 294 293 300 304 303 300 305 308 312
223 213 207 214 207 195 186 178 174 177 180 204 208 215 220 232 233 233 234 239 245 243 237 237 236 255 258 264 281 290 294 288 284 288 289 291 290 297 299 304 306 305 307
184 194 197 206 199 197 192 166 156 156 166 190 216 228 229 235 240 236 233 226 238 245 248 246 249 263 270 276 282 286 285 289 296 298 291 288 288 295 299 301 304 309 310
192 197 185 194 199 205 215 215 195 214 219 227 241 226 223 231 234 228 175 134 238 238 248 253 258 269 280 288 297 297 298 311 297 286 294 305 312 324 331 329 315 309 320
205 208 213 209 212 204 193 191 196 197 203 215 232 232 227 217 207 196 167 143 129 139 317 280 271 274 292 303 315 322 334 336 335 340 350 349 340 333 318 302 321 327 323
188 174 173 176 170 167 171 191 207 208 208 213 212 218 218 214 213 213 209 212 183 140 185 254 289 306 312 319 322 326 333 339 357 5 332 325 311 314 329 313 299 309 319
169 166 162 153 141 155 164 186 194 191 196 193 172 168 196 212 230 229 228 226 213 210 206 244 286 298 306 307 304 306 309 326 351 324 326 326 331 330 321 325 341 320 318
145 143 148 152 146 137 144 136 146 131 116 144 152 164 148 189 201 209 231 248 256 260 270 285 292 294 303 319 322 332 332 351 319 339 327 324 324 318 325 327 319 317 320
158 160 146 144 138 109 112 127 138 158 171 170 181 194 221 255 249 261 268 273 268 271 277 284 300 2 21 24 13 5 14 340 357 343 326 328 329 325 327 328 324 322 325
157 157 153 152 149 176 173 177 187 186 168 177 175 200 183 242 286 273 270 259 272 286 306 8 351 55 37 6 0 24 10 3 350 333 341 328 326 325 326 324 324 326 322
145 146 156 161 146 153 191 208 198 198 206 217 228 249 222 230 176 143 125 89 78 57 57 68 38 34 20 17 5 355 341 329 328 345 333 334 329 330 324 328 328 324 318
146 166 163 156 172 162 148 156 178 180 189 197 196 194 168 129 93 73 68 69 81 70 49 31 33 23 6 14 9 357 352 341 352 334 324 322 315 320 315 323 323 320 316
141 159 146 174 179 177 170 168 153 137 134 161 169 164 134 76 65 67 67 54 47 50 51 33 29 16 12 5 360 355 346 348 338 341 340 340 333 330 327 323 320 314 311
137 145 160 176 191 187 177 171 172 173 168 179 169 163 123 94 154 120 133 82 77 51 34 23 19 18 4 360 348 349 346 340 343 340 337 330 330 328 324 322 321 316 311
181 185 168 208 221 189 182 182 192 189 185 182 175 182 246 36 42 54 58 66 67 62 32 16 359 359 353 347 348 347 344 345 338 337 333 330 327 324 322 318 315 313 310
202 210 208 200 208 208 193 201 210 207 200 196 219 218 182 159 198 173 132 355 69 356 331 331 337 345 347 345 342 343 338 334 333 330 329 326 324 322 319 314 312 310 307
197 203 201 202 219 215 203 208 209 213 212 206 221 245 228 177 203 210 246 290 278 301 301 319 331 335 332 334 339 336 333 330 328 326 325 324 324 322 317 313 312 310 309
209 212 217 211 217 220 216 211 219 219 219 218 219 239 274 203 228 240 251 255 266 286 290 307 314 319 316 320 325 330 330 328 328 328 326 325 324 320 317 313 310 307 305
216 216 219 221 219 221 223 221 221 224 221 226 230 236 234 233 237 248 257 253 265 273 280 288 295 302 304 309 310 312 309 313 326 328 328 324 323 326 322 318 317 315 310
214 229 229 227 226 229 226 228 228 227 232 230 229 236 239 240 243 250 259 263 266 271 284 289 295 295 301 297 302 303 301 322 325 321 323 326 323 320 317 317 317 317 317
235 233 228 232 230 229 235 232 232 230 231 231 233 235 239 241 246 252 259 263 262 267 271 289 290 297 301 306 292 300 313 318 318 323 323 323 323 322 317 313 314 317 317